Location: Unspecified
(26.1264°N, 0.0000°E)
Time: 02:57:22
(UTC+00:00)

deb HAPS - Visible Passes

Search period start: 04 April 2026 00:00
Search period end: 14 April 2026 00:00
Orbit: 530 x 801 km, 82.2° (Epoch: 27 March)

Date Brightness Start Highest point End Pass type
(mag) Time Alt. Az. Time Alt. Az. Time Alt. Az.
4 Apr ? 04:04:13 10° N 04:09:29 57° E 04:14:30 10° SSE visible
5 Apr ? 02:59:42 10° NE 03:01:55 13° ENE 03:04:05 10° E visible
5 Apr ? 04:35:52 10° NNW 04:41:02 51° W 04:45:56 10° SSW visible
6 Apr ? 03:29:02 10° NNE 03:33:49 34° E 03:38:23 10° SE visible
6 Apr ? 05:08:44 10° NW 05:12:17 18° W 05:15:43 10° SW visible
7 Apr ? 04:00:07 10° N 04:05:27 87° W 04:10:27 10° S visible
8 Apr ? 02:54:08 10° NNE 02:57:57 20° ENE 03:01:37 10° SE visible
8 Apr ? 04:32:12 10° NNW 04:36:45 30° W 04:39:36 18° SW visible
9 Apr ? 03:24:29 10° N 03:29:39 55° E 03:30:43 46° SE visible
9 Apr ? 05:06:53 10° WNW 05:07:47 10° W 05:08:40 10° W visible
10 Apr ? 02:20:12 10° NE 02:21:53 11° ENE 02:22:27 11° E visible
10 Apr ? 03:55:59 10° NNW 04:00:27 49° WNW 04:00:27 49° WNW visible
11 Apr ? 02:49:03 10° NNE 02:52:30 28° NE 02:52:30 28° NE visible
11 Apr ? 04:28:39 10° NW 04:30:30 16° WNW 04:30:30 16° WNW visible
12 Apr ? 03:19:55 10° N 03:22:45 33° N 03:22:45 33° N visible
13 Apr ? 02:13:56 10° NNE 02:15:06 14° NE 02:15:06 14° NE visible
13 Apr ? 03:51:48 10° NNW 03:53:07 17° NW 03:53:07 17° NW visible
